Moose, Wyoming, United States (83012)
Lat: 43.66N, Lon: 110.72W
Wx Zone: WYZ013
Local Info
Past Weather Observations for Thursday, May 26, 2016

NOTE: This archive is for the closest National Weather Service station to Moose. Information may differ from the station used for current weather conditions.

Click here for Long-term Archive

Time Weather Temperature Dewpoint Humidity Pressure Winds Precip Visibility
23:55
Mostly Cloudy
45°F / 7°C 37°F / 3°C 76% 30.04 in
(1017 mb)
NNE 4.6 mph
(NNE 7 kph)
- 10SM
23:35
Mostly Cloudy
45°F / 7°C 37°F / 3°C 76% 30.04 in
(1017 mb)
NE 3.5 mph
(NE 6 kph)
- 10SM
23:15
Partly Cloudy
45°F / 7°C 37°F / 3°C 76% 30.01 in
(1016 mb)
NE 8.1 mph
(NE 13 kph)
- 10SM
22:55
Mostly Cloudy
45°F / 7°C 39°F / 4°C 81% 30.04 in
(1017 mb)
NNE 9.2 mph
(NNE 15 kph)
- 10SM
22:35
Overcast
46°F / 8°C 39°F / 4°C 76% 30.04 in
(1017 mb)
NE 8.1 mph
(NE 13 kph)
- 10SM
22:15
Mostly Cloudy
45°F / 7°C 37°F / 3°C 76% 30.04 in
(1017 mb)
NE 6.9 mph
(NE 11 kph)
- 10SM
21:55
Overcast
45°F / 7°C 37°F / 3°C 76% 30.04 in
(1017 mb)
NE 5.8 mph
(NE 9 kph)
- 10SM
21:35
Overcast
45°F / 7°C 37°F / 3°C 76% 30.04 in
(1017 mb)
N 5.8 mph
(N 9 kph)
- 10SM
21:15
Partly Cloudy
41°F / 5°C 36°F / 2°C 81% 30.04 in
(1017 mb)
N 3.5 mph
(N 6 kph)
- 10SM
20:55
Clear
45°F / 7°C 36°F / 2°C 71% 30.04 in
(1017 mb)
NE 3.5 mph
(NE 6 kph)
- 10SM
20:35
Clear
46°F / 8°C 36°F / 2°C 66% 30.01 in
(1016 mb)
ENE 3.5 mph
(ENE 6 kph)
- 10SM
20:15
Clear
46°F / 8°C 36°F / 2°C 66% 30.01 in
(1016 mb)
NNE 3.5 mph
(NNE 6 kph)
- 10SM
19:55
Clear
46°F / 8°C 36°F / 2°C 66% 30.01 in
(1016 mb)
NNW 6.9 mph
(NNW 11 kph)
- 10SM
18:53
Partly Cloudy
55°F / 13°C 34°F / 1°C 44% 30.01 in
(1016 mb)
NW 6.9 mph
(NW 11 kph)
- 10SM
17:50
Partly Cloudy
55°F / 13°C 34°F / 1°C 44% 29.98 in
(1015 mb)
WNW 9.2 mph
(WNW 15 kph)
- 10SM
16:50
Partly Cloudy
57°F / 14°C 34°F / 1°C 41% 29.98 in
(1015 mb)
W 11.5 mph
(W 19 kph)
- 10SM
15:55
Partly Cloudy
57°F / 14°C 34°F / 1°C 41% 29.98 in
(1015 mb)
W 12.7 mph
(W 20 kph)
- 10SM
14:48
Mostly Cloudy
Showers In Vicinity
59°F / 15°C 30°F / -1°C 34% 29.98 in
(1015 mb)
SSW 6.9 mph
(SSW 11 kph)
- 10SM
13:51
Partly Cloudy
59°F / 15°C 34°F / 1°C 39% 30.01 in
(1016 mb)
SW 8.1 mph
(SW 13 kph)
- 10SM
13:45
Partly Cloudy
59°F / 15°C 34°F / 1°C 39% 30.01 in
(1016 mb)
SW 10.4 mph
(SW 17 kph)
- 10SM
12:45
Mostly Cloudy
57°F / 14°C 34°F / 1°C 41% 30.01 in
(1016 mb)
SSE 3.5 mph
(SSE 6 kph)
- 10SM
11:46
Mostly Cloudy
55°F / 13°C 32°F / 0°C 41% 30.06 in
(1018 mb)
Calm - 10SM
10:57
Mostly Cloudy
54°F / 12°C 37°F / 3°C 54% 30.06 in
(1018 mb)
Calm - 10SM
09:50
Partly Cloudy
50°F / 10°C 37°F / 3°C 62% 30.06 in
(1018 mb)
Calm - 10SM
08:50
Partly Cloudy
46°F / 8°C 39°F / 4°C 76% 30.09 in
(1019 mb)
Calm - 10SM
08:20
Partly Cloudy
43°F / 6°C 39°F / 4°C 87% 30.09 in
(1019 mb)
Calm - 10SM
06:55
Partly Cloudy
37°F / 3°C 37°F / 3°C 100% 30.09 in
(1019 mb)
Calm - 10SM
05:55
Partly Cloudy
34°F / 1°C 34°F / 1°C 100% 30.09 in
(1019 mb)
Calm - 10SM
05:35
Mostly Cloudy
34°F / 1°C 32°F / 0°C 93% 30.09 in
(1019 mb)
NNE 3.5 mph
(NNE 6 kph)
- 7SM
05:15
Mostly Cloudy
34°F / 1°C 34°F / 1°C 100% 30.09 in
(1019 mb)
NNE 3.5 mph
(NNE 6 kph)
- 10SM
04:55
Partly Cloudy
34°F / 1°C 34°F / 1°C 100% 30.09 in
(1019 mb)
Calm - 10SM
04:35
Partly Cloudy
34°F / 1°C 34°F / 1°C 100% 30.09 in
(1019 mb)
N 4.6 mph
(N 7 kph)
- 10SM
04:15
Clear
34°F / 1°C 34°F / 1°C 100% 30.09 in
(1019 mb)
N 3.5 mph
(N 6 kph)
- 10SM
03:55
Partly Cloudy
34°F / 1°C 34°F / 1°C 100% 30.09 in
(1019 mb)
N 5.8 mph
(N 9 kph)
0.01 in
(0.25 mm)
10SM
03:35
Mostly Cloudy
34°F / 1°C 34°F / 1°C 100% 30.09 in
(1019 mb)
NNW 3.5 mph
(NNW 6 kph)
0.01 in
(0.25 mm)
10SM
03:15
Mostly Cloudy
36°F / 2°C 36°F / 2°C 100% 30.09 in
(1019 mb)
E 3.5 mph
(E 6 kph)
- 10SM
02:55
Overcast
34°F / 1°C 34°F / 1°C 100% 30.09 in
(1019 mb)
N 3.5 mph
(N 6 kph)
- 10SM
02:35
Mostly Cloudy
34°F / 1°C 34°F / 1°C 100% 30.09 in
(1019 mb)
Calm - 10SM
02:15
Mostly Cloudy
34°F / 1°C 32°F / 0°C 93% 30.12 in
(1020 mb)
Calm - 10SM
01:55
Overcast
34°F / 1°C 34°F / 1°C 100% 30.09 in
(1019 mb)
NE 3.5 mph
(NE 6 kph)
- 10SM
01:35
Mostly Cloudy
36°F / 2°C 36°F / 2°C 100% 30.09 in
(1019 mb)
NE 5.8 mph
(NE 9 kph)
- 10SM
01:15
Clear
34°F / 1°C 32°F / 0°C 93% 30.09 in
(1019 mb)
NE 5.8 mph
(NE 9 kph)
- 10SM
00:55
Partly Cloudy
34°F / 1°C 34°F / 1°C 100% 30.12 in
(1020 mb)
NNE 5.8 mph
(NNE 9 kph)
- 10SM
00:35
Partly Cloudy
34°F / 1°C 32°F / 0°C 93% 30.12 in
(1020 mb)
N 5.8 mph
(N 9 kph)
- 10SM
00:15
Partly Cloudy
37°F / 3°C 37°F / 3°C 100% 30.09 in
(1019 mb)
ENE 3.5 mph
(ENE 6 kph)
- 10SM
Time Weather Temperature Dewpoint Humidity Pressure Winds Precip Visibility


Weather for websites

WeatherForYou.com, LLC is not responsible for any damages or problems caused by this service. Current weather conditions are obtained from the closest station including government and personal stations which may have varying degrees of accuracy. Weather forecasts are derived from the NOAA NDFD. Like all things, this site belongs to Jesus Christ... He just trusts us to maintain it. If you have any questions or comments email webmaster@weatherforyou.com

Copyright © 2016, WeatherForYou.com LLC. All rights reserved.